Location: Shannon
(40.5500°S, 175.4167°E)
Time: 21:36:10
(UTC+00:00)

ATLAS 2AS CENTAUR R/B - Pass Details

Date: 17 November 2025
Orbit: 1047 x 1163 km, 63.7° (Epoch: 06 December)

Event Time Altitude Azimuth Distance (km) Brightness Sun altitude
Exits shadow 13:34:58 19° 266° (W) 2,389 4.3 -26.6°
Maximum altitude 13:38:54 31° 220° (SW) 1,894 4.2 -26.3°
Drops below altitude 10° 13:45:14 10° 160° (SSE) 3,065 6.1 -25.8°
Sets 13:48:24 0° 149° (SSE) 4,044 7.1 -25.5°
